Tracking 29967 objects as of 5-Dec-2024
HD Live streaming from Space Station
objects crossing your sky now

STARLINK-31364

Track STARLINK-31364 now!
10-day predictions


NORAD ID: 59463
Int'l Code: 2024-068J
Perigee: 450.4 km
Apogee: 452.0 km
Inclination: 43.0 °
Period: 93.5 minutes
Semi major axis: 6822 km
RCS: Unknown
Launch date: April 10, 2024
Source: United States (US)
Launch site: AIR FORCE EASTERN TEST RANGE (AFETR)
Your satellite tracking list
Your tracking list is empty




NASA's NSSDC Master Catalog

Two Line Element Set (TLE):
1 59463U 24068J   24340.11276346  .00000058  00000-0  86449-5 0  9999
2 59463  42.9957 117.9945 0001169 252.2054 107.8675 15.40700853 38141
Source of the keplerian elements: AFSPC